Total_Precipitation_Accumulation
0.75 0.67 0.82 0.87 0.79 0.86 1.18 1.07 0.98 0.64 0.55 0.58 0.60 0.61 0.58 0.58 0.57 0.56 0.63 0.70 0.75 0.81 0.81 0.80 0.86 0.88 0.94 1.04 1.13 1.20 1.26 1.28 1.24 1.27 1.28 1.29 1.30 1.33 1.30 1.33 1.35 1.39 1.42 1.40
0.71 0.60 0.70 0.75 0.66 0.66 0.71 0.69 0.68 0.54 0.60 0.54 0.53 0.51 0.50 0.51 0.51 0.52 0.57 0.65 0.68 0.72 0.73 0.74 0.81 0.86 0.87 0.93 1.08 1.12 1.18 1.25 1.20 1.14 1.16 1.26 1.34 1.35 1.36 1.35 1.38 1.41 1.46 1.49
0.83 0.57 0.73 0.90 0.78 0.67 0.64 0.64 0.62 0.72 0.70 0.53 0.51 0.49 0.54 0.52 0.50 0.53 0.55 0.57 0.61 0.66 0.69 0.74 0.78 0.81 0.83 0.88 1.00 1.07 1.12 1.20 1.20 1.17 1.17 1.21 1.29 1.40 1.45 1.45 1.46 1.53 1.60 1.64
0.99 0.77 1.03 0.89 0.55 0.46 0.48 0.55 0.57 0.62 0.57 0.52 0.56 0.54 0.49 0.47 0.46 0.48 0.49 0.52 0.54 0.57 0.61 0.64 0.67 0.73 0.79 0.82 0.88 0.95 1.01 1.11 1.14 1.15 1.24 1.31 1.34 1.37 1.42 1.47 1.56 1.67 1.75 1.76
1.05 0.86 0.67 0.47 0.37 0.45 0.49 0.56 0.49 0.47 0.42 0.39 0.41 0.44 0.43 0.38 0.37 0.43 0.48 0.53 0.55 0.57 0.61 0.59 0.58 0.65 0.74 0.80 0.86 0.90 0.97 1.08 1.15 1.16 1.21 1.28 1.42 1.44 1.44 1.47 1.53 1.59 1.62 1.57
1.07 0.94 0.63 0.49 0.30 0.30 0.42 0.61 0.40 0.39 0.39 0.37 0.36 0.43 0.47 0.40 0.37 0.35 0.36 0.45 0.52 0.54 0.56 0.58 0.60 0.66 0.74 0.82 0.91 1.02 1.10 1.18 1.26 1.31 1.32 1.28 1.33 1.40 1.39 1.32 1.27 1.19 1.13 1.09
0.97 0.95 0.59 0.46 0.28 0.23 0.57 0.74 0.40 0.40 0.42 0.39 0.45 0.48 0.39 0.32 0.33 0.36 0.36 0.40 0.48 0.54 0.59 0.63 0.69 0.75 0.85 0.93 1.07 1.16 1.22 1.24 1.31 1.32 1.33 1.29 1.18 1.09 1.05 0.99 0.92 0.89 0.84 0.80
0.75 0.97 0.70 0.37 0.31 0.59 0.75 0.46 0.37 0.36 0.37 0.38 0.36 0.30 0.24 0.22 0.24 0.28 0.33 0.40 0.49 0.56 0.61 0.65 0.74 0.80 0.86 0.96 1.05 1.06 1.12 1.13 1.13 1.05 0.94 0.89 0.89 0.85 0.85 0.85 0.80 0.78 0.78 0.80
0.76 0.82 0.66 0.47 0.53 0.57 0.49 0.42 0.35 0.36 0.35 0.34 0.31 0.27 0.24 0.21 0.21 0.24 0.29 0.34 0.39 0.47 0.51 0.53 0.60 0.69 0.78 0.80 0.79 0.80 0.81 0.83 0.84 0.80 0.73 0.71 0.74 0.78 0.80 0.82 0.82 0.78 0.76 0.79
0.55 0.50 0.39 0.36 0.32 0.30 0.32 0.37 0.34 0.34 0.35 0.34 0.35 0.31 0.29 0.25 0.25 0.26 0.28 0.31 0.35 0.39 0.43 0.45 0.48 0.57 0.68 0.68 0.66 0.68 0.71 0.72 0.75 0.77 0.74 0.73 0.73 0.74 0.80 0.83 0.84 0.82 0.80 0.79
0.46 0.38 0.33 0.29 0.27 0.28 0.27 0.26 0.25 0.26 0.28 0.33 0.35 0.35 0.34 0.32 0.32 0.33 0.33 0.35 0.39 0.44 0.47 0.48 0.48 0.51 0.57 0.61 0.64 0.69 0.69 0.69 0.72 0.75 0.78 0.77 0.78 0.82 0.86 0.87 0.95 1.00 0.94 0.87
0.56 0.44 0.49 0.41 0.33 0.30 0.30 0.29 0.29 0.28 0.26 0.27 0.34 0.39 0.38 0.37 0.36 0.37 0.38 0.39 0.41 0.45 0.50 0.52 0.52 0.55 0.58 0.62 0.68 0.75 0.77 0.76 0.78 0.82 0.83 0.84 0.84 0.85 0.93 0.95 1.00 1.03 0.99 0.94
0.50 0.38 0.36 0.33 0.29 0.30 0.33 0.34 0.33 0.33 0.32 0.31 0.31 0.33 0.35 0.37 0.38 0.37 0.37 0.39 0.45 0.50 0.55 0.56 0.56 0.59 0.65 0.68 0.71 0.78 0.83 0.88 0.88 0.86 0.84 0.85 0.89 0.88 0.90 0.91 0.95 1.00 1.02 0.97
0.33 0.31 0.33 0.31 0.35 0.32 0.31 0.30 0.29 0.29 0.29 0.30 0.30 0.28 0.30 0.34 0.35 0.38 0.42 0.47 0.50 0.52 0.53 0.53 0.53 0.58 0.67 0.71 0.73 0.76 0.78 0.88 0.93 0.89 0.88 0.89 0.93 0.97 0.95 0.93 0.92 0.92 0.95 1.00
0.30 0.35 0.41 0.37 0.31 0.29 0.28 0.26 0.26 0.28 0.27 0.28 0.29 0.29 0.29 0.33 0.37 0.42 0.45 0.46 0.48 0.48 0.50 0.50 0.50 0.56 0.61 0.68 0.72 0.73 0.74 0.83 0.89 0.92 0.91 0.92 0.94 0.96 0.96 0.96 0.94 0.92 0.89 0.96
0.28 0.25 0.25 0.25 0.27 0.26 0.25 0.26 0.28 0.28 0.27 0.26 0.27 0.29 0.32 0.35 0.37 0.39 0.41 0.43 0.47 0.53 0.56 0.54 0.53 0.55 0.56 0.60 0.64 0.66 0.71 0.84 0.90 0.90 0.89 0.88 0.88 0.90 0.92 0.92 0.91 0.88 0.87 0.93
0.28 0.27 0.25 0.25 0.25 0.27 0.28 0.31 0.33 0.32 0.30 0.29 0.30 0.32 0.31 0.32 0.32 0.34 0.39 0.43 0.48 0.55 0.57 0.56 0.56 0.53 0.54 0.58 0.60 0.62 0.68 0.76 0.84 0.82 0.82 0.83 0.85 0.87 0.89 0.89 0.87 0.84 0.89 0.98
0.32 0.34 0.33 0.34 0.33 0.32 0.31 0.30 0.30 0.30 0.31 0.31 0.30 0.30 0.32 0.33 0.36 0.38 0.40 0.40 0.38 0.40 0.46 0.53 0.57 0.55 0.55 0.58 0.61 0.64 0.69 0.74 0.76 0.78 0.79 0.81 0.84 0.84 0.84 0.84 0.82 0.82 0.86 0.93
0.29 0.30 0.30 0.31 0.33 0.34 0.34 0.35 0.36 0.35 0.33 0.32 0.32 0.33 0.34 0.36 0.38 0.39 0.37 0.34 0.34 0.39 0.47 0.51 0.55 0.51 0.52 0.58 0.64 0.66 0.69 0.72 0.72 0.73 0.75 0.78 0.78 0.75 0.77 0.78 0.78 0.78 0.80 0.83
0.28 0.29 0.29 0.30 0.31 0.34 0.35 0.35 0.34 0.34 0.33 0.33 0.33 0.32 0.32 0.35 0.38 0.38 0.35 0.36 0.44 0.53 0.53 0.52 0.48 0.47 0.49 0.53 0.61 0.64 0.65 0.67 0.70 0.71 0.70 0.71 0.72 0.71 0.71 0.72 0.73 0.73 0.75 0.78
0.26 0.27 0.27 0.29 0.30 0.32 0.34 0.34 0.33 0.35 0.34 0.32 0.33 0.35 0.36 0.35 0.34 0.33 0.32 0.36 0.43 0.45 0.44 0.43 0.43 0.47 0.51 0.55 0.58 0.58 0.59 0.62 0.65 0.68 0.70 0.72 0.72 0.69 0.69 0.70 0.70 0.71 0.73 0.76
0.28 0.27 0.27 0.26 0.25 0.27 0.28 0.28 0.30 0.31 0.30 0.31 0.31 0.31 0.32 0.31 0.30 0.29 0.31 0.38 0.43 0.43 0.39 0.40 0.46 0.55 0.60 0.61 0.55 0.53 0.54 0.58 0.61 0.64 0.68 0.70 0.72 0.71 0.69 0.69 0.70 0.69 0.69 0.71
0.29 0.29 0.29 0.30 0.30 0.29 0.26 0.27 0.29 0.30 0.30 0.31 0.31 0.31 0.31 0.31 0.29 0.30 0.34 0.35 0.35 0.37 0.37 0.42 0.50 0.56 0.58 0.55 0.50 0.49 0.51 0.54 0.57 0.61 0.65 0.69 0.71 0.72 0.71 0.68 0.67 0.66 0.66 0.66
0.27 0.28 0.28 0.26 0.23 0.21 0.22 0.25 0.27 0.28 0.28 0.28 0.29 0.29 0.29 0.27 0.25 0.26 0.31 0.32 0.31 0.33 0.34 0.38 0.42 0.44 0.44 0.42 0.40 0.42 0.45 0.47 0.51 0.54 0.56 0.58 0.60 0.63 0.64 0.63 0.63 0.60 0.60 0.61
0.23 0.23 0.23 0.22 0.22 0.20 0.21 0.20 0.20 0.21 0.22 0.21 0.21 0.21 0.22 0.25 0.28 0.25 0.24 0.23 0.24 0.27 0.28 0.29 0.30 0.31 0.31 0.31 0.34 0.38 0.41 0.44 0.49 0.52 0.51 0.51 0.51 0.54 0.55 0.56 0.57 0.57 0.56 0.55
0.17 0.17 0.17 0.18 0.19 0.19 0.18 0.18 0.19 0.18 0.17 0.16 0.16 0.17 0.17 0.17 0.18 0.18 0.18 0.19 0.20 0.22 0.22 0.21 0.22 0.23 0.25 0.27 0.30 0.33 0.35 0.37 0.39 0.42 0.43 0.44 0.44 0.45 0.46 0.47 0.49 0.51 0.52 0.51
0.14 0.14 0.13 0.13 0.13 0.13 0.15 0.16 0.17 0.17 0.18 0.20 0.21 0.18 0.17 0.15 0.15 0.15 0.16 0.17 0.18 0.19 0.19 0.20 0.22 0.24 0.25 0.27 0.28 0.29 0.31 0.33 0.35 0.37 0.39 0.41 0.42 0.43 0.43 0.43 0.45 0.45 0.46 0.46